Regional Weather Roundup
Issued by NWS Midland/Odessa, TX

Current Version | Previous Version | Text Only | Print | Product List | Glossary On
Versions: 1 2 3 4 5 6 7 8 9 10 11 12 13 14 15 16 17 18 19 20 21 22 23 24 25 26 27 28 29 30 31 32 33 34 35 36 37 38 39 40 41 42 43 44 45 46 47 48 49 50
000
ASUS44 KMAF 241510
RWRMAF
MIDLAND AREA WEATHER ROUNDUP
NATIONAL WEATHER SERVICE MIDLAND TX
900 AM CST TUE JAN 24 2017

...IN SOUTHWEST TEXAS AND SOUTHEAST NEW MEXICO...

CITY           SKY/WX    TMP DP  RH WIND       PRES   REMARKS
ALPINE         SUNNY     64  24  22 SW21      29.85R
ANDREWS        FAIR      54  32  43 W13       29.69R
ARTESIA        SUNNY     54  34  47 W26G35    29.69S
BIG SPRING     MOSUNNY   51  34  51 S12       29.70R
CARLSBAD       SUNNY     55  35  47 W31G40    29.67R
DRYDEN           N/A     53  35  50 N5        29.73R
FORT STOCKTON  SUNNY     61  29  29 SW13      29.72R
GUAD PASS      SUNNY     46  32  58 W40G48    29.75R WCI  35
HOBBS          SUNNY     52  28  40 SW13      29.71R
MARFA          CLOUDY    46  35  65 CALM      29.84R
MIDLAND AIRPK  SUNNY     58  32  36 SW10      29.69R
MIDLAND INTL   SUNNY     56  32  40 SW9       29.68R
ODESSA         SUNNY     55  32  41 SW9       29.69R
PECOS          SUNNY     45  35  67 SW3       29.70S
PRESIDIO       FAIR      63  27  25 CALM      29.77R
SEMINOLE       SUNNY     45  33  61 W8        29.70R
SNYDER         SUNNY     51  34  53 S10       29.66S
WINK           SUNNY     49  35  58 W8        29.69R
$$
...OTHER STATIONS IN TEXAS...

CITY           SKY/WX    TMP DP  RH WIND       PRES   REMARKS
ABILENE        SUNNY     59  33  37 S26G36    29.63S
AMARILLO       SUNNY     46  32  58 SW12      29.60R
AUSTIN         PTSUNNY   58  52  80 S14G21    29.77R
BROWNSVILLE    SUNNY     73  66  78 S18       29.81S
CORPUS CHRISTI MOSUNNY   68  63  84 S21       29.76S
DALLAS FTW     PTSUNNY   59  39  47 S13       29.66F
DEL RIO        MOSUNNY   56  38  50 SE7       29.74R
EL PASO        MOSUNNY   48  26  42 W23G29    29.80R
HOUSTON INT    MOSUNNY   64  58  80 S9        29.83R
LUBBOCK        MOSUNNY   57  31  37 W28G33    29.64S
SAN ANGELO     SUNNY     61  35  37 SW10      29.67S
SAN ANTONIO    MOSUNNY   56  45  66 CALM      29.79S
WACO           SUNNY     56  46  69 S14       29.72F
WICHITA FALLS  NOT AVBL
$$
...OTHER LOCATIONS IN NEW MEXICO...

CITY           SKY/WX    TMP DP  RH WIND       PRES   REMARKS
ALAMAGORDO     CLOUDY    45  28  53 SW6       29.82R
ALBUQUERQUE    PTCLDY    34  24  67 SW12      29.72R WCI  25
CANNON AFB     SUNNY     40  37  86 W8        29.64R WCI  35
CLOVIS         SUNNY     43  32  65 W14       29.63S WCI  36
HOLLOMAN AFB   CLEAR     43  29  58 SW17G30   29.82R WCI  35
ROSWELL        SUNNY     50  32  50 W13       29.69R
RUIDOSO        CLOUDY    36  19  51 W17G32    29.72R WCI  25
SANTA FE       CLOUDY    29  27  92 W9        29.65R WCI  20
TRUTH OR CONSE CLEAR     40  26  57 SW10      29.75R WCI  33
TUCUMCARI      SUNNY     43  31  62 W22G28    29.59R WCI  34
$$



USA.gov is the U.S. government's official web portal to all federal, state and local government web resources and services.